TimeEST,TemperatureF,Dew PointF,Humidity,Sea Level PressureIn,VisibilityMPH,Wind Direction,Wind SpeedMPH,Gust SpeedMPH,PrecipitationIn,Events,Conditions,WindDirDegrees,DateUTC
12:51 AM,46.9,46.9,100,29.96,2.0,North,10.4,-,0.17,Rain,Light Rain,360,2003-03-16 05:51:00
1:51 AM,46.9,46.9,100,29.96,2.0,NNW,3.5,-,0.20,Rain,Heavy Rain,330,2003-03-16 06:51:00
2:51 AM,48.0,48.0,100,29.94,2.0,NNW,5.8,-,0.05,,Overcast,330,2003-03-16 07:51:00
3:51 AM,48.0,48.0,100,29.93,10.0,NW,4.6,-,0.00,,Overcast,320,2003-03-16 08:51:00
4:51 AM,48.9,48.9,100,29.93,4.0,NNW,6.9,-,0.01,Rain,Light Rain,330,2003-03-16 09:51:00
5:51 AM,48.9,48.9,100,29.93,9.0,North,6.9,-,0.00,,Overcast,350,2003-03-16 10:51:00
6:51 AM,50.0,50.0,100,29.94,6.0,North,5.8,-,0.01,Rain,Light Rain,360,2003-03-16 11:51:00
7:51 AM,50.0,50.0,100,29.95,5.0,North,4.6,-,0.00,,Overcast,360,2003-03-16 12:51:00
8:32 AM,51.8,51.8,100,29.95,2.0,North,5.8,-,N/A,,Overcast,360,2003-03-16 13:32:00
8:51 AM,51.1,51.1,100,29.95,1.0,North,8.1,-,0.00,,Light Drizzle,10,2003-03-16 13:51:00
9:51 AM,52.0,52.0,100,29.96,1.5,NNE,4.6,-,0.00,,Overcast,20,2003-03-16 14:51:00
10:40 AM,53.6,53.6,100,29.95,4.0,North,5.8,-,N/A,,Overcast,350,2003-03-16 15:40:00
10:51 AM,54.0,54.0,100,29.95,4.0,Variable,5.8,-,N/A,,Overcast,0,2003-03-16 15:51:00
11:51 AM,55.9,55.0,97,29.94,10.0,North,5.8,-,N/A,,Overcast,360,2003-03-16 16:51:00
12:51 PM,55.9,55.0,97,29.93,10.0,NW,4.6,-,N/A,,Overcast,320,2003-03-16 17:51:00
1:51 PM,57.0,55.9,96,29.91,7.0,North,8.1,-,N/A,,Overcast,360,2003-03-16 18:51:00
2:51 PM,57.0,55.9,96,29.89,7.0,NNW,5.8,-,N/A,,Overcast,340,2003-03-16 19:51:00
3:51 PM,57.0,55.9,96,29.89,7.0,North,6.9,-,N/A,,Overcast,360,2003-03-16 20:51:00
4:51 PM,57.0,55.9,96,29.89,5.0,North,5.8,-,N/A,,Overcast,10,2003-03-16 21:51:00
5:42 PM,55.4,55.4,100,29.90,2.5,North,4.6,-,0.00,,Light Drizzle,10,2003-03-16 22:42:00
5:51 PM,55.9,55.9,100,29.90,2.0,North,4.6,-,0.00,,Light Drizzle,10,2003-03-16 22:51:00
6:51 PM,55.9,55.9,100,29.91,2.0,North,3.5,-,0.00,,Light Drizzle,360,2003-03-16 23:51:00
7:51 PM,55.9,55.9,100,29.91,2.0,North,3.5,-,0.00,,Light Drizzle,10,2003-03-17 00:51:00
7:58 PM,55.4,55.4,100,29.91,3.0,NNE,3.5,-,0.00,,Light Drizzle,20,2003-03-17 00:58:00
8:42 PM,55.4,55.4,100,29.92,2.0,NNE,4.6,-,0.00,,Light Drizzle,20,2003-03-17 01:42:00
8:51 PM,55.0,55.0,100,29.91,2.0,North,4.6,-,0.00,,Light Drizzle,360,2003-03-17 01:51:00
9:51 PM,55.0,55.0,100,29.90,2.0,North,3.5,-,0.00,,Light Drizzle,360,2003-03-17 02:51:00
10:32 PM,55.4,55.4,100,29.90,2.0,North,5.8,-,0.00,,Overcast,360,2003-03-17 03:32:00
10:51 PM,55.0,55.0,100,29.89,2.0,North,5.8,-,0.00,,Overcast,10,2003-03-17 03:51:00
11:51 PM,55.0,55.0,100,29.88,2.0,Calm,Calm,-,N/A,,Overcast,0,2003-03-17 04:51:00